NOAA 16 DEB, 42425

Orbit data source: Space-Track

NOAA 16 DEB, 42425 is space debris in SSO originally from a launch on Thu, 21 Sep 2000 UTC launched from the Air Force Western Test Range (AFWTR). Debris objects in space refer to the collection of defunct objects orbiting the Earth. Examples of debris include non-operational satellites, rocket bodies, and fragments generated from explosions, collisions, or faulty payload assembly.

Loading next visibility...
Identifier
42425, 2000-055TV
Orbit
SSO
Country
Flag of USUS
Related business
Manufacturer
Unknown
Mission
Spacecraft
Bus & Motor
Unknown
Mass
Unknown
Launch date (UTC)
2000-09-21 (25 years ago)
Launch vehicle
Unknown
Launch site
Air Force Western Test Range (AFWTR)
Object type
Payload
Rocket body
Debris
Shape & HBR
Unknown shape, 0.1 m
Radar Cross Section
Small (<0.1 m²)

Expand to show TLE details & history
Last TLE update: 1 day ago

TLE from 1 day ago
0 NOAA 16 DEB
1 42425U 00055TV  25287.04223118  .00003867  00000-0  19154-2 0  9998
2 42425  98.7153 323.8664 0026316 192.7450 167.3063 14.17637026471847
Epoch: 2025-10-14T01:00Z
TLE epoch observation values (Epoch: 2025-10-14T01:00:48.773Z)
Latitude
-0.00003°
Longitude
-74.17316°
Altitude
854.786 km
Speed
7.416 km/s
True Right ascension
21h 35m 27s
True Declination
0° 00' 00"
Sunlit
Object was in full shadow at epoch
Visualization orbit readout
Latitude
Unknown
Longitude
Unknown
Altitude
Unknown
Speed
Unknown
Apparent Right ascension
Unknown
Apparent Declination
Unknown
Sunlit
N/A
Visualization observer readout
Local Sidereal Time
00:34:04
Azimuth
Unknown
Elevation
Unknown
Doppler factor
Unknown
Orbital elements
Apogee altitude
849.488 km
Perigee altitude
811.547 km
Semi-major axis
7,208.654 km
Eccentricity
0.00263
Inclination
98.7153°
RAAN
323.8664°
Arg. of periapsis
192.745°
True anomaly
167.37235°
Mean anomaly
167.3063°
Eccentric anomaly
167.33935°
Mean motion
3.54619 °/min
Orbital period
101.52 mins
BSTAR
0.0019154
Loading maneuver chart data...
Computing Atmospheric mass density...
Loading historical data...
Loading historical data...
Loading historical data...
Loading historical data...
Loading historical data...
Loading historical data...
Loading historical data...

Documentation

Showing up to 5 results
|